2017-071P

Last updated on Feb. 14, 2018, 4:20 p.m. UTC

1 43050U 17071P   18045.14256480  .00003725  00000-0  10730-3 0  9997
2 43050  51.6391 280.4490 0002813 177.9809 182.1187 15.38323383 10627
UTC
Height (km)
Latitude
Longitude
Inclination
Orbital Period
UTC large
Height (km)
Speed (km/s)
/
Latitude / Longitude
Inclination (degrees)
Orbital Period (minutes)
Azimuth
Elevation
Range (km)
Doppler Factor
iOS Compass Heading
iOS Angle